When you browse on this site, cookies collect data to enhance your experience and personalize the content and advertising you see.
Visit our Privacy Policy to learn more. By continuing to use the site, you agree to this use of cookies and data.

Tiempo cada hora Fria

Hoy, 18 Septiembre, Viernes

Tiempo Temperatura Precipitaciones Viento Presión Humedad
00:00 +26°C° 0 mm 1 mps 753 mmHg 96%
01:00 +24°C° 0 mm 0 mps 752 mmHg 96%
02:00 +23°C° 0 mm 0 mps 752 mmHg 97%
03:00 +23°C° 0.1 mm 0 mps 752 mmHg 97%
04:00 +25°C° 0.1 mm 1 mps 752 mmHg 97%
05:00 +25°C° 0 mm 1 mps 752 mmHg 97%
06:00 +26°C° 0.1 mm 1 mps 753 mmHg 95%
07:00 +27°C° 0.1 mm 1 mps 753 mmHg 92%
08:00 +28°C° 0.1 mm 1 mps 754 mmHg 89%
09:00 +29°C° 1.3 mm 2 mps 754 mmHg 86%
10:00 +30°C° 1.3 mm 2 mps 753 mmHg 83%
11:00 +31°C° 1.3 mm 2 mps 753 mmHg 80%
12:00 +31°C° 2.2 mm 2 mps 753 mmHg 80%
13:00 +31°C° 2.2 mm 2 mps 752 mmHg 80%
14:00 +31°C° 2.2 mm 1 mps 751 mmHg 79%
15:00 +30°C° 1.8 mm 1 mps 751 mmHg 83%
16:00 +29°C° 1.8 mm 1 mps 752 mmHg 87%
17:00 +28°C° 1.8 mm 1 mps 752 mmHg 91%
18:00 +28°C° 1.6 mm 1 mps 753 mmHg 92%
19:00 +25°C° 1.6 mm 0 mps 753 mmHg 92%
20:00 +24°C° 1.6 mm 0 mps 754 mmHg 93%
21:00 +24°C° 0.7 mm 0 mps 754 mmHg 93%
22:00 +24°C° 0.7 mm 0 mps 754 mmHg 93%
23:00 +24°C° 0.7 mm 0 mps 754 mmHg 93%

Mañana, 19 Septiembre, Sábado

Tiempo Temperatura Precipitaciones Viento Presión Humedad
00:00 +23°C° 0.2 mm 0 mps 754 mmHg 94%
01:00 +23°C° 0.2 mm 0 mps 754 mmHg 94%
02:00 +23°C° 0.2 mm 0 mps 753 mmHg 94%
03:00 +25°C° 0 mm 1 mps 753 mmHg 94%
04:00 +25°C° 0 mm 1 mps 753 mmHg 95%
05:00 +25°C° 0 mm 1 mps 753 mmHg 95%
06:00 +26°C° 0 mm 1 mps 754 mmHg 92%
07:00 +27°C° 0 mm 1 mps 754 mmHg 89%
08:00 +28°C° 0 mm 1 mps 755 mmHg 86%
09:00 +29°C° 0.2 mm 2 mps 755 mmHg 82%
10:00 +30°C° 0.2 mm 2 mps 754 mmHg 78%
11:00 +31°C° 0.2 mm 3 mps 754 mmHg 73%
12:00 +31°C° 1.3 mm 3 mps 754 mmHg 75%
13:00 +31°C° 1.3 mm 3 mps 753 mmHg 77%
14:00 +30°C° 1.3 mm 3 mps 753 mmHg 79%
15:00 +30°C° 0.5 mm 3 mps 753 mmHg 82%
16:00 +29°C° 0.5 mm 3 mps 753 mmHg 85%
17:00 +28°C° 0.5 mm 2 mps 753 mmHg 87%
18:00 +27°C° 0 mm 2 mps 753 mmHg 90%
19:00 +27°C° 0 mm 1 mps 754 mmHg 93%
20:00 +26°C° 0 mm 1 mps 755 mmHg 96%
21:00 +26°C° 0.1 mm 1 mps 755 mmHg 96%
22:00 +25°C° 0.1 mm 1 mps 755 mmHg 96%
23:00 +25°C° 0.1 mm 1 mps 755 mmHg 96%

Pasado mañana, 20 Septiembre, Domingo

Tiempo Temperatura Precipitaciones Viento Presión Humedad
00:00 +23°C° 0.1 mm 0 mps 755 mmHg 97%
01:00 +23°C° 0.1 mm 0 mps 755 mmHg 97%
02:00 +23°C° 0.1 mm 0 mps 754 mmHg 97%
03:00 +23°C° 0 mm 0 mps 754 mmHg 97%
04:00 +23°C° 0 mm 0 mps 754 mmHg 97%
05:00 +25°C° 0 mm 1 mps 754 mmHg 97%
06:00 +24°C° 0 mm 0 mps 755 mmHg 94%
07:00 +25°C° 0 mm 0 mps 755 mmHg 91%
08:00 +26°C° 0 mm 0 mps 755 mmHg 88%
09:00 +26°C° 0 mm 0 mps 755 mmHg 86%
10:00 +27°C° 0 mm 0 mps 755 mmHg 84%
11:00 +29°C° 0 mm 1 mps 755 mmHg 82%
12:00 +29°C° 1.6 mm 1 mps 754 mmHg 82%
13:00 +30°C° 1.6 mm 1 mps 754 mmHg 82%
14:00 +30°C° 1.6 mm 1 mps 753 mmHg 81%
15:00 +29°C° 1.7 mm 1 mps 753 mmHg 85%
16:00 +28°C° 1.7 mm 1 mps 753 mmHg 88%
17:00 +28°C° 1.7 mm 1 mps 753 mmHg 91%
18:00 +27°C° 0.2 mm 1 mps 754 mmHg 93%
19:00 +26°C° 0.2 mm 1 mps 754 mmHg 94%
20:00 +24°C° 0.2 mm 0 mps 755 mmHg 95%
21:00 +24°C° 0 mm 0 mps 755 mmHg 95%
22:00 +23°C° 0 mm 0 mps 755 mmHg 96%
23:00 +23°C° 0 mm 0 mps 755 mmHg 96%

21 Septiembre, Lunes

Tiempo Temperatura Precipitaciones Viento Presión Humedad
00:00 +23°C° 0 mm 0 mps 755 mmHg 96%
01:00 +23°C° 0 mm 0 mps 754 mmHg 96%
02:00 +23°C° 0 mm 0 mps 754 mmHg 96%
03:00 +23°C° 0 mm 0 mps 754 mmHg 97%
04:00 +22°C° 0 mm 0 mps 754 mmHg 97%
05:00 +24°C° 0 mm 1 mps 754 mmHg 97%
06:00 +25°C° 0 mm 1 mps 755 mmHg 94%
07:00 +27°C° 0 mm 1 mps 755 mmHg 90%
08:00 +28°C° 0 mm 1 mps 755 mmHg 87%
09:00 +29°C° 0.1 mm 1 mps 755 mmHg 82%
10:00 +30°C° 0.1 mm 1 mps 755 mmHg 77%
11:00 +31°C° 0.1 mm 2 mps 755 mmHg 73%
12:00 +31°C° 1.7 mm 2 mps 755 mmHg 75%
13:00 +30°C° 1.7 mm 2 mps 754 mmHg 77%
14:00 +30°C° 1.7 mm 2 mps 753 mmHg 79%
15:00 +30°C° 0.6 mm 2 mps 753 mmHg 82%
16:00 +29°C° 0.6 mm 2 mps 753 mmHg 85%
17:00 +29°C° 0.6 mm 1 mps 753 mmHg 88%
18:00 +28°C° 1.4 mm 1 mps 754 mmHg 91%
19:00 +27°C° 1.4 mm 1 mps 754 mmHg 93%
20:00 +24°C° 1.4 mm 0 mps 755 mmHg 95%
21:00 +24°C° 0.4 mm 0 mps 755 mmHg 95%
22:00 +24°C° 0.4 mm 0 mps 755 mmHg 95%
23:00 +24°C° 0.4 mm 0 mps 755 mmHg 95%

22 Septiembre, Martes

Tiempo Temperatura Precipitaciones Viento Presión Humedad
00:00 +24°C° 0 mm 0 mps 754 mmHg 95%
01:00 +23°C° 0 mm 0 mps 754 mmHg 95%
02:00 +23°C° 0 mm 0 mps 754 mmHg 95%
03:00 +23°C° 0 mm 0 mps 754 mmHg 95%
04:00 +23°C° 0 mm 0 mps 754 mmHg 95%
05:00 +23°C° 0 mm 0 mps 754 mmHg 95%
06:00 +24°C° 0 mm 0 mps 754 mmHg 91%
07:00 +25°C° 0 mm 0 mps 755 mmHg 88%
08:00 +26°C° 0 mm 0 mps 755 mmHg 84%
09:00 +30°C° 0 mm 1 mps 755 mmHg 77%
10:00 +32°C° 0 mm 1 mps 755 mmHg 69%
11:00 +34°C° 0 mm 1 mps 755 mmHg 61%
12:00 +34°C° 0.6 mm 1 mps 754 mmHg 63%
13:00 +33°C° 0.6 mm 1 mps 754 mmHg 65%
14:00 +34°C° 0.6 mm 2 mps 753 mmHg 67%
15:00 +31°C° 1 mm 2 mps 753 mmHg 74%
16:00 +30°C° 1 mm 2 mps 753 mmHg 82%
17:00 +28°C° 1 mm 2 mps 753 mmHg 89%
18:00 +28°C° 0 mm 2 mps 754 mmHg 91%
19:00 +27°C° 0 mm 1 mps 754 mmHg 94%
20:00 +24°C° 0 mm 0 mps 755 mmHg 96%
21:00 +24°C° 0 mm 0 mps 755 mmHg 97%
22:00 +24°C° 0 mm 0 mps 755 mmHg 97%
23:00 +23°C° 0 mm 0 mps 755 mmHg 97%

23 Septiembre, Miércoles

Tiempo Temperatura Precipitaciones Viento Presión Humedad
00:00 +23°C° 0 mm 0 mps 754 mmHg 97%
01:00 +23°C° 0 mm 0 mps 754 mmHg 98%
02:00 +23°C° 0 mm 0 mps 754 mmHg 98%
03:00 +23°C° 0.1 mm 0 mps 754 mmHg 97%
04:00 +23°C° 0.1 mm 0 mps 754 mmHg 97%
05:00 +23°C° 0.1 mm 0 mps 754 mmHg 97%
06:00 +24°C° 0.1 mm 0 mps 754 mmHg 93%
07:00 +25°C° 0.1 mm 0 mps 754 mmHg 90%
08:00 +26°C° 0.1 mm 0 mps 755 mmHg 87%
09:00 +28°C° 0.1 mm 0 mps 754 mmHg 82%
10:00 +31°C° 0.1 mm 1 mps 754 mmHg 77%
11:00 +32°C° 0.1 mm 2 mps 754 mmHg 72%
12:00 +31°C° 0.6 mm 2 mps 753 mmHg 74%
13:00 +31°C° 0.6 mm 2 mps 753 mmHg 77%
14:00 +31°C° 0.6 mm 3 mps 752 mmHg 80%
15:00 +30°C° 0.5 mm 3 mps 752 mmHg 82%
16:00 +29°C° 0.5 mm 2 mps 752 mmHg 84%
17:00 +29°C° 0.5 mm 2 mps 752 mmHg 87%
18:00 +28°C° 0.1 mm 2 mps 753 mmHg 89%
19:00 +27°C° 0.1 mm 1 mps 753 mmHg 91%
20:00 +24°C° 0.1 mm 0 mps 754 mmHg 94%
21:00 +24°C° 0 mm 0 mps 754 mmHg 94%
22:00 +24°C° 0 mm 0 mps 754 mmHg 94%
23:00 +24°C° 0 mm 0 mps 754 mmHg 93%
Mostrar más